Flag for Israel Weather past 2 weeks in Tel Aviv, Israel

Now
57 °F

Passing clouds.


Feels Like: 56 °F
Forecast: 55 / 68 °F
Wind: 7 mph from South

Location: Ben Gurion International Airport

Current Time: Dec 28, 2014 at 6:36:33 AM

Latest Report: Dec 28, 2014 at 6:20 AM


Visibility: N/A

Pressure: 30.09 "Hg

Humidity: 88%

Dew point: 54 °F

Location of Tel AvivLocation

Historic Weather in Tel Aviv — Graph

°F

Tel Aviv temperature yesterday

Maximum temperature yesterday: 70 °F (at 1:20 PM)
Minimum temperature yesterday: 50 °F (at 4:50 AM)
Average temperature yesterday: 59 °F

Past Weeks' High & Low Weather Summary

 TemperatureHumidityPressure
High77 °F (Dec 16, 1:20 PM)94% (Dec 14, 2:50 AM)30.30 "Hg (Dec 14, 2:50 AM)
Low46 °F (Dec 25, 4:20 AM)35% (Dec 13, 11:50 AM)29.98 "Hg (Dec 26, 12:20 PM)
Average59 °F74%30.12 "Hg
* Reported Dec 13 5:20 AM — Dec 28 5:20 AM, Tel Aviv, Weather by CustomWeather, © 2014

Note: Actual official high and low records may vary slightly from our data, if they occured in-between our weather recording intervals... More about our weather records

Advertising

Tel Aviv weather history for previous 24 hours

 ConditionsComfort  
Time TempWeatherWind HumidityBarometerVisibility
5:20 AM
Dec 28
57 °FClear.2 mph88%30.07 "Hg10 mi
4:50 AM57 °FPassing clouds.5 mph88%30.07 "HgN/A
4:20 AM57 °FPassing clouds.1 mph88%30.07 "HgN/A
3:50 AM57 °FPassing clouds.1 mph88%30.07 "HgN/A
3:20 AM57 °FPassing clouds.3 mph88%30.07 "HgN/A
2:50 AM55 °FClear.1 mph94%30.04 "Hg10 mi
2:20 AM55 °FPassing clouds.2 mph88%30.04 "Hg6 mi
1:50 AM57 °FPassing clouds.2 mph88%30.04 "Hg6 mi
1:20 AM57 °FPassing clouds.5 mph88%30.04 "Hg6 mi
12:50 AM55 °FPassing clouds.5 mph88%30.04 "Hg6 mi
12:20 AM55 °FPassing clouds.2 mph88%30.04 "Hg6 mi
11:50 PM
Dec 27
55 °FPassing clouds.3 mph88%30.04 "Hg6 mi
11:20 PM55 °FClear.5 mph88%30.04 "Hg10 mi
10:50 PM55 °FClear.2 mph88%30.04 "Hg10 mi
10:20 PM57 °FClear.2 mph82%30.04 "Hg10 mi
9:50 PM57 °FClear.3 mph88%30.04 "Hg10 mi
9:20 PM57 °FClear.2 mph88%30.04 "Hg10 mi
8:50 PM57 °FClear.3 mph88%30.04 "Hg10 mi
8:20 PM57 °FClear.5 mph88%30.04 "Hg10 mi
7:50 PM59 °FClear.2 mph82%30.04 "Hg10 mi
7:20 PM59 °FClear.5 mph82%30.01 "Hg10 mi
6:50 PM59 °FClear.5 mph88%30.01 "Hg10 mi
6:20 PM61 °FClear.3 mph88%30.01 "Hg10 mi
5:50 PM61 °FClear.1 mph83%30.01 "Hg10 mi
5:20 PM63 °FPassing clouds.2 mph77%30.01 "HgN/A
4:50 PM63 °FPassing clouds.3 mph77%30.01 "HgN/A
4:20 PM66 °FPassing clouds.6 mph68%30.01 "HgN/A
3:50 PM66 °FPassing clouds.8 mph68%30.01 "HgN/A
3:20 PM68 °FScattered clouds.8 mph64%30.01 "HgN/A
2:50 PM68 °FScattered clouds.8 mph64%30.01 "HgN/A
2:20 PM68 °FScattered clouds.6 mph64%30.01 "HgN/A
1:50 PM70 °FScattered clouds.8 mph60%30.01 "HgN/A
1:20 PM70 °FPartly sunny.7 mph60%30.01 "HgN/A
12:50 PM68 °FScattered clouds.6 mph64%30.01 "HgN/A
12:20 PM68 °FScattered clouds.8 mph64%30.01 "HgN/A
11:50 AM68 °FScattered clouds.7 mph64%30.04 "HgN/A
11:20 AM66 °FScattered clouds.7 mph68%30.04 "HgN/A
10:50 AM66 °FScattered clouds.7 mph68%30.04 "HgN/A
10:20 AM64 °FScattered clouds.8 mph73%30.07 "HgN/A
9:50 AM64 °FPartly sunny.7 mph68%30.07 "HgN/A
9:20 AM63 °FScattered clouds.7 mph77%30.07 "HgN/A
8:50 AM61 °FScattered clouds.7 mph77%30.07 "HgN/A
8:20 AM57 °FScattered clouds.6 mph82%30.07 "HgN/A
7:50 AM55 °FPartly sunny.6 mph88%30.04 "HgN/A
7:20 AM54 °FScattered clouds.6 mph88%30.04 "HgN/A
6:50 AM54 °FScattered clouds.3 mph88%30.04 "HgN/A
6:20 AM54 °FPassing clouds.6 mph88%30.04 "HgN/A
Weather by CustomWeather, © 2014

See weather overviewHow to use our weather pages